STARLINK-3740, 52265

Orbit data source: Space-Track

STARLINK-3740, 52265 is a payload satellite owned by SpaceX/Seattle (US) in LEO that was launched on Thu, 21 Apr 2022 UTC via an FALCON 9 launch vehicle from the Air Force Eastern Test Range (AFETR). Payload-class satellites include a variety of spacecraft equipped with specific instruments for various scientific and technological missions. These include communications satellites like Starlink; space stations such as the ISS; scientific satellites like the Hubble; Earth observation satellites from companies like Planet Labs, Umbra, and HawkEye 360; GPS; miniature CubeSats for education and research; and military/defense satellites.

Loading next visibility...
Identifier
52265, 2022-041E
Orbit
LEO
Country
Flag of USUS
Related business
Manufacturer
SpaceX/Seattle
Mission
Operational Commercial Communications
Bus & Motor
STARLINK, Unknown motor
Mass
297 kg wet, ~275 kg dry
Launch date (UTC)
2022-04-21 (4 years ago)
Launch vehicle
FALCON 9
Launch site
Air Force Eastern Test Range (AFETR)
Object type
Payload
Rocket body
Debris
Shape & HBR
Box + 1 Pan, 10.1 m
Radar Cross Section
11.087 m², Large (>1 m²)

Expand to show TLE details & history
Last TLE update: 14 hours ago

TLE from 14 hours ago
0 STARLINK-3740
1 52265U 22041E   26129.91038971  .00000702  00000-0  62174-4 0  9990
2 52265  53.2161 194.2911 0001182  79.2564 280.8561 15.08843931223607
Epoch: 2026-05-09T21:50Z
TLE epoch observation values (Epoch: 2026-05-09T21:50:57.670Z)
Latitude
-0.00006°
Longitude
-1.17028°
Altitude
540.475 km
Speed
7.593 km/s
True Right ascension
12h 57m 09s
True Declination
0° 00' 00"
Sunlit
Object was in full shadow at epoch
Visualization orbit readout
Latitude
Unknown
Longitude
Unknown
Altitude
Unknown
Speed
Unknown
Apparent Right ascension
Unknown
Apparent Declination
Unknown
Sunlit
N/A
Visualization observer readout
Local Sidereal Time
19:47:40
Azimuth
Unknown
Elevation
Unknown
Doppler factor
Unknown
Orbital elements
Apogee altitude
540.794 km
Perigee altitude
539.159 km
Semi-major axis
6,918.114 km
Eccentricity
0.00012
Inclination
53.2161°
RAAN
194.2911°
Arg. of periapsis
79.2564°
True anomaly
280.8428°
Mean anomaly
280.8561°
Eccentric anomaly
280.84945°
Mean motion
3.77191 °/min
Orbital period
95.44 mins
BSTAR
0.000062174
Loading maneuver chart data...
Computing Atmospheric mass density...
Loading historical data...
Loading historical data...
Loading historical data...
Loading historical data...
Loading historical data...
Loading historical data...
Loading historical data...

Documentation

Showing up to 5 results
|